RH
8 6 6 5 8 11 10 8 11 12 10 11 10 11 11 8 7 8 11 10 12 13 13 14 15 17 15 13 23 32 30 34 38 40 47 53 52 55 56 53 50 45 43 39 35 36 35 36 36 35 33 32 29 28 29 32 34 35 37 38 38 34 34 34 34 35 34 34 33 31 30 32 33 33 32 29 28 33 38 40 41 42 40 37 34 31 28 26 21 19 19 19 19 20 20 20 21
7 7 6 8 10 11 12 9 12 14 14 13 8 9 10 10 10 10 11 11 17 17 15 18 18 18 18 14 21 29 32 33 35 39 44 46 48 53 57 56 51 44 40 36 36 37 36 36 36 34 33 31 29 28 29 32 34 35 37 37 37 34 34 34 35 37 36 35 33 32 31 32 33 32 31 29 31 36 38 38 38 37 37 34 32 29 28 29 24 20 20 19 19 20 20 20 21
9 11 9 9 10 10 15 15 12 13 17 16 11 10 8 9 12 12 11 13 23 25 22 23 21 21 20 17 20 32 37 34 34 38 42 46 48 51 53 51 47 40 36 34 37 37 37 36 36 34 33 32 31 29 29 32 34 35 36 37 37 34 34 36 37 38 37 35 33 32 33 34 35 34 32 32 36 39 39 38 36 33 32 31 30 29 28 31 27 22 20 20 20 20 20 20 21
11 13 11 9 9 11 15 17 14 11 15 15 13 12 9 10 11 12 14 18 24 28 28 24 24 24 26 32 34 39 46 42 42 42 43 48 48 48 48 48 45 41 39 38 38 37 36 35 35 35 34 34 32 31 30 32 33 34 35 36 37 35 36 38 38 39 37 34 33 33 35 36 37 37 38 39 41 42 40 38 38 34 31 30 29 28 28 30 29 25 21 20 20 20 20 21 21
10 12 12 8 10 13 14 15 15 12 11 11 13 12 10 10 12 13 15 19 21 25 27 25 28 29 31 42 46 49 52 49 49 48 45 46 47 49 48 48 47 44 42 39 37 36 35 35 34 35 35 35 34 33 31 31 32 33 34 36 37 37 38 40 40 39 36 32 31 34 37 38 41 41 42 44 43 41 39 37 36 34 32 30 28 26 25 27 28 26 23 21 20 20 21 21 21
9 10 10 8 11 14 15 13 12 13 9 8 12 12 10 10 13 13 13 14 17 21 22 22 29 34 40 44 48 55 56 54 55 53 52 51 49 50 49 49 47 46 44 40 38 35 34 34 34 34 34 35 35 34 33 32 32 33 34 37 38 39 41 41 40 37 33 31 32 36 38 39 40 41 42 44 43 40 38 36 33 32 33 31 28 26 24 25 25 26 24 22 21 20 21 21 21
8 9 8 7 10 14 17 14 11 12 10 8 11 11 11 11 12 12 12 11 12 14 13 16 24 37 49 48 49 55 53 55 56 54 55 53 49 49 48 47 46 45 44 40 36 34 34 33 33 33 34 36 37 36 35 34 34 35 35 38 40 42 43 41 37 33 31 32 36 38 38 39 41 42 45 47 46 42 40 37 34 33 34 33 30 28 24 23 23 24 25 23 22 21 21 22 22
7 10 10 7 9 12 13 13 11 11 10 10 10 11 11 10 11 10 10 10 11 13 11 14 18 33 49 50 54 58 56 57 57 56 54 50 50 51 46 43 43 41 41 38 34 32 32 33 32 33 35 37 38 39 38 37 36 36 36 38 42 43 42 38 34 32 32 37 42 43 42 46 50 52 53 53 50 46 45 43 39 35 33 33 34 32 28 25 23 23 24 25 24 23 22 22 23
7 10 12 9 9 10 10 10 9 9 10 10 11 11 10 8 10 9 10 9 10 13 15 18 20 33 47 50 56 60 61 60 59 57 52 52 55 50 43 41 41 39 39 36 32 31 31 33 32 33 36 39 40 41 40 39 37 37 38 38 40 40 39 36 34 34 38 44 49 50 51 57 62 63 62 58 54 51 50 48 44 38 34 33 34 33 31 28 25 24 23 26 26 24 23 23 24
7 10 12 11 9 9 10 10 9 8 8 9 11 11 10 8 8 9 9 8 9 10 13 20 29 38 44 51 57 59 59 56 58 56 52 57 57 48 42 42 41 41 41 37 32 30 31 33 34 36 38 41 43 44 43 42 41 40 40 39 40 40 40 38 38 40 43 48 54 58 61 66 68 68 67 62 60 58 56 53 47 44 39 34 31 31 30 29 31 30 25 25 26 26 25 24 25
9 10 13 14 13 12 10 10 10 9 8 8 11 11 9 8 9 9 8 8 8 8 10 15 30 39 42 52 59 60 57 53 57 55 53 58 54 46 44 43 42 41 40 38 34 32 33 36 38 41 43 45 47 48 48 47 45 42 40 40 42 44 44 42 42 43 47 52 59 65 68 72 72 71 70 66 65 63 60 58 51 48 44 35 30 29 30 29 32 34 27 25 26 27 26 25 26
10 11 12 13 14 14 10 9 10 12 11 9 11 10 9 8 9 9 9 9 7 9 10 14 29 37 42 54 61 63 60 56 56 53 54 58 51 47 47 45 43 42 41 38 36 35 36 38 41 44 46 50 53 54 55 53 46 41 39 41 45 48 47 46 45 46 52 57 63 69 71 72 72 71 70 68 67 65 62 58 52 50 47 40 34 31 30 30 30 31 27 25 26 27 28 27 27
10 11 13 12 11 12 10 9 10 13 12 9 11 11 9 10 11 12 11 10 9 8 10 16 27 34 42 54 59 61 62 57 55 55 55 55 51 49 48 44 42 42 42 40 37 36 37 37 39 43 47 52 56 55 56 52 44 40 42 46 50 51 51 50 49 50 57 63 66 71 71 70 71 71 72 70 68 66 63 58 55 55 50 43 38 33 30 29 29 29 28 26 26 27 28 29 29
11 11 14 14 11 10 9 9 11 13 11 10 11 11 11 12 15 17 15 14 13 10 15 23 25 30 40 50 57 61 62 57 56 59 56 53 51 48 45 43 43 42 41 40 37 35 35 36 39 42 46 52 53 51 51 48 46 46 49 53 54 55 55 55 54 55 62 69 70 70 70 71 72 72 70 69 67 66 63 60 60 58 52 44 40 36 31 28 27 28 28 26 25 26 26 27 29
13 12 14 16 15 13 10 8 10 12 11 12 12 12 12 12 14 16 15 16 17 16 25 33 29 34 42 49 59 60 61 59 57 57 54 52 49 46 46 45 43 42 40 38 37 35 36 37 39 43 46 50 52 50 51 51 53 55 55 55 55 57 60 59 60 62 66 72 71 68 69 73 73 71 69 68 66 65 63 61 59 55 49 46 42 39 36 32 28 26 26 26 26 25 25 26 28
12 12 14 16 15 14 12 10 11 12 12 13 12 13 13 13 13 15 16 17 20 22 27 35 37 42 47 52 63 62 60 60 57 56 53 51 49 48 47 43 42 41 39 39 38 37 39 41 41 44 48 52 56 57 58 60 61 61 59 57 56 59 63 65 66 67 70 72 72 71 72 75 74 70 68 67 65 63 63 59 55 50 46 45 43 41 40 38 34 30 27 26 26 26 26 26 27
12 11 14 15 14 14 13 13 14 13 12 13 13 13 13 14 15 18 21 20 23 28 31 35 41 47 50 56 65 65 61 60 59 55 51 50 50 48 43 40 42 40 39 39 39 39 41 42 43 47 50 54 59 61 62 64 65 65 64 61 58 60 66 70 71 71 73 74 74 75 75 75 72 70 68 67 65 63 60 56 51 47 45 43 43 43 43 42 39 37 33 29 25 26 28 29 30
12 11 12 13 15 15 13 14 16 14 13 15 15 14 13 13 19 24 24 22 24 36 42 39 46 54 53 60 67 65 63 60 58 53 49 48 45 43 41 41 41 39 39 39 39 42 43 45 46 49 54 58 59 60 62 64 64 64 66 64 62 65 70 70 72 73 75 77 78 79 78 76 73 71 72 70 66 63 59 54 51 49 47 45 44 44 44 44 43 42 40 37 33 28 28 30 33
12 13 13 11 12 14 14 15 16 15 15 17 17 14 14 12 17 26 28 26 25 38 50 44 51 60 57 63 68 65 61 56 52 50 47 43 41 40 40 40 40 38 38 39 41 45 47 49 52 51 56 61 60 59 62 64 64 63 64 65 65 70 72 71 73 73 75 81 81 79 78 77 76 74 74 73 68 65 60 56 54 52 50 49 47 46 45 46 45 45 44 43 41 37 33 32 33
13 13 14 12 11 12 15 18 17 17 17 17 16 13 14 11 14 21 26 31 29 37 51 48 53 61 60 63 64 62 56 50 49 47 45 41 41 42 40 39 38 37 38 40 42 48 51 52 55 55 55 58 58 59 60 62 64 64 64 66 67 70 73 74 75 72 76 82 80 79 78 77 77 76 74 72 68 64 60 58 55 54 53 52 51 50 49 48 46 45 46 46 46 47 45 42 42
14 13 13 13 11 12 15 19 18 18 17 15 16 14 12 12 13 17 22 32 38 46 54 52 55 62 64 62 59 57 51 48 48 43 42 41 42 42 39 39 38 37 38 41 45 51 55 52 53 56 55 56 59 62 61 61 63 65 67 68 69 71 75 76 74 73 78 81 79 78 78 76 76 75 72 69 66 63 62 60 56 54 54 55 55 54 52 50 48 47 47 49 54 56 54 52 52
15 13 12 12 12 14 17 20 20 17 16 14 15 14 13 13 12 14 18 27 39 51 57 58 62 65 66 64 60 54 48 47 46 42 40 40 41 40 38 37 37 35 36 39 44 48 50 49 53 55 55 59 62 64 64 62 63 67 69 71 70 71 74 76 74 73 78 80 77 77 74 73 74 72 70 67 63 62 62 59 54 54 55 56 57 54 53 53 54 54 54 55 59 63 62 59 58
16 14 12 11 11 15 18 22 21 15 14 14 14 13 12 12 12 14 16 24 35 44 50 54 62 65 64 65 62 55 49 48 46 42 37 37 38 36 36 36 36 35 35 38 41 44 45 48 54 55 57 65 67 66 65 64 67 71 71 71 71 72 76 78 76 73 76 78 76 75 73 73 72 69 67 65 63 61 59 56 52 53 54 55 56 52 51 55 56 58 61 64 64 67 67 64 62
16 15 13 13 13 13 15 18 18 14 14 14 12 12 12 11 12 13 16 26 35 41 47 51 59 63 61 61 59 54 52 49 47 42 37 36 37 36 35 34 34 36 36 39 40 41 45 48 56 58 62 70 71 68 67 67 70 72 72 72 74 76 80 81 77 74 75 77 75 72 71 70 69 66 62 59 61 60 56 54 52 53 53 55 58 53 52 55 54 55 62 68 72 77 76 71 67
16 16 14 15 14 14 14 15 15 15 15 13 11 11 12 12 12 14 17 22 30 41 50 52 55 57 57 58 54 49 50 48 45 41 38 36 35 35 33 32 33 35 37 41 41 41 45 50 57 63 66 70 72 70 69 69 71 72 73 76 79 80 81 79 77 75 74 75 72 69 68 66 67 67 61 59 61 58 54 52 53 55 55 58 60 58 57 57 55 57 63 68 75 79 78 78 75
16 16 15 15 15 15 15 14 14 15 14 12 11 10 11 10 11 14 15 17 25 36 42 44 49 53 54 56 53 48 46 45 42 38 37 33 33 33 32 32 34 36 38 40 43 46 48 54 61 66 68 69 68 70 72 73 74 75 76 77 80 79 79 77 73 72 71 72 72 69 66 61 64 65 61 65 66 59 55 52 54 55 55 58 60 61 61 59 59 63 66 69 75 75 71 76 77
15 16 16 16 16 15 15 14 15 16 14 12 12 10 10 10 11 13 13 17 26 30 32 35 40 44 46 51 53 49 45 44 40 36 34 32 31 32 32 32 33 38 40 40 44 48 50 57 65 72 77 77 74 73 75 76 75 77 77 78 78 76 75 72 69 67 65 69 71 67 62 61 65 64 61 68 66 57 53 52 53 52 51 54 56 58 58 59 64 66 68 72 76 77 74 74 75
15 16 16 17 17 16 14 14 16 16 14 12 12 11 11 11 11 13 11 15 22 24 28 33 36 37 38 46 53 50 44 42 38 34 33 32 31 33 33 33 34 37 41 43 44 49 58 66 72 79 84 84 81 78 77 78 78 77 77 78 76 72 71 68 64 63 64 68 68 60 59 62 63 60 59 64 60 52 51 51 49 46 46 49 51 55 57 63 68 68 70 74 74 75 74 74 76
16 16 17 18 17 15 14 13 15 16 14 12 13 12 11 11 12 12 10 15 23 22 23 29 33 35 39 49 56 53 46 41 38 35 33 32 31 32 32 32 34 38 43 45 44 54 69 73 77 82 84 85 83 80 80 81 78 75 74 73 71 67 64 61 60 62 64 64 60 56 59 59 54 53 54 54 50 47 50 52 49 45 45 47 49 53 58 65 68 65 68 70 71 71 70 71 74
16 16 17 18 17 14 13 13 14 15 14 13 13 12 12 11 11 12 12 17 26 24 23 27 29 33 45 56 58 54 47 42 40 37 34 32 30 30 31 31 33 38 44 46 53 67 74 73 76 81 86 88 86 82 82 82 79 75 71 69 66 65 62 59 60 61 59 57 56 56 58 53 48 48 48 46 44 43 47 49 44 45 47 47 48 52 57 63 64 64 65 68 67 67 68 69 72
16 17 17 16 16 14 12 13 14 14 14 13 13 14 13 12 11 11 12 17 22 23 23 27 28 33 50 61 57 52 47 42 39 36 34 32 30 29 31 31 34 45 54 56 64 72 70 69 73 77 83 85 85 84 83 82 78 71 69 68 64 64 63 60 60 60 58 61 62 58 55 50 48 46 44 44 42 41 44 45 41 44 48 48 49 51 54 58 62 65 64 64 64 64 69 72 74
16 16 16 15 14 13 12 12 12 14 13 13 13 13 12 12 12 11 11 17 20 20 22 25 27 32 46 57 56 51 47 41 36 33 32 31 30 29 31 34 42 57 65 66 72 73 68 69 73 77 81 82 85 84 82 80 75 69 69 70 67 64 65 63 64 66 63 62 60 53 47 44 42 43 43 43 42 41 42 44 44 45 48 49 50 50 52 54 59 63 61 62 61 62 69 72 73
16 16 15 14 13 11 11 10 11 13 12 12 12 12 13 12 13 13 14 18 21 21 22 24 27 31 41 53 55 50 45 39 33 30 30 30 30 31 34 42 55 65 69 72 75 74 69 69 74 77 78 80 83 80 79 78 74 69 63 64 65 62 60 61 61 63 59 54 49 42 37 35 34 37 40 39 41 43 43 45 46 46 50 51 50 49 51 54 56 59 59 59 58 59 66 69 70
16 15 15 13 12 12 10 9 13 15 13 14 14 12 12 12 14 19 18 18 22 25 25 26 27 30 41 53 54 50 44 38 33 29 29 30 30 34 41 51 61 63 63 66 67 68 67 66 69 72 74 78 79 76 74 72 71 68 62 63 66 60 55 54 53 52 50 47 42 37 33 31 31 32 34 36 38 41 42 44 46 48 52 51 49 49 49 50 53 55 55 55 55 57 61 64 64
17 17 17 14 11 11 11 10 13 17 15 16 17 14 12 12 16 21 20 19 26 29 26 25 25 29 41 52 52 49 45 39 32 30 30 30 32 40 49 57 62 58 56 62 65 65 66 66 66 68 72 74 74 71 68 67 68 66 65 68 66 59 52 49 47 46 43 40 39 36 34 32 31 30 31 34 36 38 40 42 44 46 48 48 47 46 45 47 49 49 50 52 54 54 57 60 61
22 23 24 21 15 12 13 13 13 15 16 16 19 17 13 12 16 23 23 23 31 34 27 25 25 27 36 45 47 46 44 38 32 31 31 32 39 47 55 59 59 56 57 63 67 68 68 68 68 68 70 71 67 65 65 65 64 62 63 63 59 53 49 44 42 40 36 35 35 35 35 32 30 31 32 32 32 33 35 37 41 42 42 42 43 44 44 46 46 45 46 49 50 50 52 57 56
27 29 30 27 21 17 16 15 12 15 17 17 19 19 15 12 14 22 27 26 27 30 28 25 26 26 29 37 47 49 44 37 32 32 33 40 49 54 58 58 55 57 59 61 65 68 68 69 70 69 71 70 64 62 63 63 61 62 64 59 53 49 45 42 39 36 36 37 38 38 35 31 28 29 30 30 30 30 32 36 38 37 35 36 40 42 43 46 46 45 45 46 48 48 50 54 55
25 29 30 27 23 19 18 16 15 17 19 20 21 19 16 14 14 18 25 28 25 25 28 26 25 26 27 34 45 48 44 39 34 31 37 50 56 59 64 59 57 63 64 61 63 62 63 67 68 67 69 69 65 64 62 60 60 64 64 57 50 46 41 41 40 39 38 37 39 38 35 32 29 27 25 26 29 27 29 34 36 36 34 34 38 40 41 45 45 43 43 43 46 47 49 51 55
22 27 29 27 24 20 18 18 18 19 21 22 23 23 18 14 16 18 21 27 26 24 26 25 24 26 30 36 40 42 44 43 36 34 46 61 62 65 72 64 60 68 65 60 60 58 60 64 65 65 65 63 63 66 65 62 62 63 64 58 50 45 43 44 43 42 39 36 37 35 32 35 35 31 27 30 32 27 25 28 30 34 34 34 37 40 42 43 43 44 44 44 45 47 49 52 54
21 24 25 25 26 22 19 22 21 22 25 24 25 29 26 20 21 18 17 25 28 28 29 27 25 27 34 40 37 39 45 42 39 45 59 72 71 71 73 65 62 65 60 57 58 59 60 61 63 64 62 60 63 68 65 62 63 63 61 56 49 46 46 45 42 42 41 39 39 34 32 37 39 37 34 35 32 25 26 28 25 27 31 34 37 39 43 43 42 45 45 46 47 46 48 51 51
20 22 23 22 26 24 21 24 25 25 28 26 27 28 27 28 28 20 19 26 27 27 29 28 27 31 40 42 37 39 44 42 47 58 67 74 75 71 67 64 64 61 57 59 60 60 60 60 63 62 60 62 67 67 63 60 62 61 57 54 51 48 44 43 42 42 42 41 39 35 36 40 40 38 37 37 31 24 25 28 28 26 26 31 35 39 43 42 42 46 47 47 46 46 50 52 51
19 19 19 19 23 26 24 25 27 29 29 29 30 28 24 25 25 23 23 25 26 26 29 30 29 35 43 45 39 40 48 52 53 58 66 73 70 62 61 64 66 63 60 63 63 60 60 60 62 61 60 64 66 63 60 59 58 57 54 52 49 44 42 46 46 43 44 44 42 42 44 45 43 41 38 35 32 28 27 28 31 29 25 27 31 35 41 41 42 46 48 47 46 48 52 51 51
18 17 17 14 19 26 27 28 30 31 31 35 37 31 26 24 22 25 26 25 29 30 32 33 32 38 46 47 47 48 55 60 56 61 72 73 62 54 58 63 64 61 59 62 64 61 61 62 61 61 60 61 61 59 59 57 55 54 52 50 48 46 48 50 49 47 48 46 44 44 44 44 45 42 37 34 32 31 30 29 30 31 30 29 29 30 36 39 39 42 47 46 43 46 48 47 48
17 17 18 15 15 21 27 31 34 34 33 38 39 32 28 26 27 31 29 26 30 33 37 36 38 46 49 50 53 53 60 64 62 71 75 64 54 52 58 62 60 59 57 58 60 59 61 61 61 61 60 58 57 57 57 54 51 50 50 51 51 51 52 50 49 49 47 42 41 42 42 45 46 42 39 39 37 34 32 29 30 32 33 33 33 31 31 34 35 39 43 43 40 41 41 41 44
17 17 23 25 19 17 24 32 35 37 37 37 38 35 30 26 28 33 32 29 31 36 42 40 41 48 48 49 54 56 64 65 60 66 64 55 54 53 56 61 59 59 58 57 56 56 59 61 61 63 61 59 58 57 57 55 50 47 52 57 56 55 52 47 47 45 42 42 44 45 45 46 45 45 44 43 39 35 33 32 31 31 33 34 34 33 32 33 35 37 39 40 39 39 38 37 41
17 17 25 31 24 16 22 30 32 35 37 36 37 39 36 31 29 32 34 34 35 39 44 44 42 45 47 53 57 59 66 62 55 60 59 55 57 53 54 57 55 55 57 57 57 54 56 58 61 64 63 62 60 57 56 54 49 47 54 57 54 53 50 46 45 42 39 44 47 46 45 45 45 45 45 43 40 36 35 36 32 28 29 31 32 34 34 33 33 32 33 36 37 37 36 36 38
18 18 22 29 26 19 20 23 27 34 35 31 33 38 40 38 33 33 34 36 38 39 43 49 47 43 44 52 54 53 59 58 56 62 60 58 62 61 58 56 53 53 54 54 54 52 50 51 55 59 61 61 56 53 52 48 45 49 55 56 53 52 50 47 45 40 39 43 45 44 45 47 47 43 40 39 36 34 33 34 33 30 29 30 31 33 32 31 31 28 27 30 34 36 37 36 37
18 21 25 31 31 26 26 26 28 35 34 28 31 36 38 39 36 33 35 38 40 41 45 54 56 48 44 49 49 47 52 53 55 60 60 60 68 69 64 60 55 52 52 52 49 47 45 45 51 54 55 54 52 51 52 47 47 51 54 58 58 53 51 48 43 39 41 44 45 47 49 49 47 42 38 35 34 32 31 30 30 30 30 30 30 29 28 29 30 27 23 25 30 36 39 38 38
19 21 25 34 39 36 34 35 33 32 28 26 32 38 39 40 39 37 41 46 45 45 49 56 59 53 49 52 52 51 50 49 51 58 63 65 70 73 71 68 61 50 50 51 48 47 45 42 46 50 51 52 53 56 55 50 52 55 56 58 55 51 51 47 41 42 46 46 47 49 50 50 49 46 39 36 37 36 34 30 26 26 27 28 28 27 27 27 28 25 22 20 22 28 35 37 38
20 20 22 32 43 42 38 38 36 32 28 26 30 37 42 44 45 44 43 46 46 47 49 51 50 47 50 54 54 53 51 49 52 59 67 70 71 77 75 70 65 57 55 57 54 52 50 47 47 49 51 53 54 55 53 50 53 57 58 57 50 48 50 48 47 50 50 49 48 50 52 52 53 50 43 40 39 34 31 29 25 23 24 25 27 28 28 28 28 23 19 17 15 17 22 26 30
19 18 24 34 41 43 40 38 39 37 34 33 33 38 46 49 51 48 43 41 45 48 48 47 46 46 52 56 53 52 52 53 56 60 66 67 65 72 74 67 66 66 66 67 65 63 58 52 50 48 48 50 50 50 47 48 51 53 56 56 51 50 51 51 55 57 55 51 50 51 54 54 53 49 42 40 37 32 30 30 27 24 21 22 25 27 27 26 24 20 17 16 15 14 14 17 21
26 16 20 33 38 39 42 40 42 41 38 39 40 42 48 51 51 49 45 42 45 48 49 51 51 49 51 51 47 49 54 58 61 62 66 67 63 67 71 69 69 71 71 68 69 73 67 57 53 51 47 46 48 51 50 50 52 53 55 55 54 54 55 59 65 63 58 55 52 54 55 55 54 46 38 37 36 34 34 33 30 26 22 22 25 24 23 22 20 19 18 17 16 15 13 13 16
36 24 20 29 34 36 42 43 41 41 41 39 41 48 51 49 48 48 45 46 49 49 50 53 52 49 48 47 44 47 52 59 66 66 64 66 70 71 74 76 73 71 75 71 66 71 72 69 66 60 55 52 53 54 52 53 54 57 59 60 61 62 62 67 70 65 59 57 56 57 57 58 55 44 36 37 37 36 36 34 32 29 24 24 24 23 21 20 20 19 18 17 16 15 14 12 13
37 36 29 30 35 37 42 45 43 43 42 37 38 48 53 50 49 48 44 46 51 50 50 53 51 48 50 51 51 52 55 60 66 64 62 69 76 72 74 79 72 67 73 71 64 63 68 73 72 66 61 58 57 58 56 56 57 58 60 62 64 65 64 69 70 62 58 59 59 60 60 58 53 44 39 37 37 37 37 36 34 31 26 25 26 26 24 24 23 22 22 22 20 18 17 15 14
31 40 36 34 42 44 42 44 46 45 44 40 34 37 46 49 49 52 52 51 55 57 55 54 53 53 54 55 56 55 54 57 61 64 68 76 77 71 71 74 69 66 70 68 64 63 65 67 71 75 74 67 64 64 64 64 63 63 65 66 67 64 65 69 68 61 57 59 60 62 62 57 48 43 40 36 37 38 36 35 34 33 29 26 27 28 28 29 28 28 28 28 27 27 27 25 24
28 35 36 35 42 46 46 47 44 41 44 44 35 33 49 58 50 52 60 59 60 64 62 61 63 63 61 59 60 57 53 54 62 70 74 75 73 70 66 66 65 66 68 67 64 63 62 58 61 70 74 73 74 72 70 69 68 66 67 70 68 65 66 67 63 59 57 58 58 60 61 54 44 41 38 34 34 35 35 36 37 36 33 31 31 32 33 34 34 35 34 34 36 35 34 34 34
31 32 33 36 40 43 46 47 42 38 41 43 38 41 59 66 54 51 57 58 61 68 71 72 74 73 67 62 60 60 63 65 66 70 71 68 67 64 58 58 62 63 63 64 62 62 60 56 57 61 63 67 71 71 70 69 65 62 65 70 70 68 71 70 62 58 58 57 53 52 56 53 44 40 38 33 31 32 34 35 38 39 38 36 36 37 38 39 40 40 39 41 43 42 38 39 39
33 33 31 33 39 43 44 45 42 38 39 40 43 52 63 63 56 54 55 56 60 67 71 71 73 76 72 66 64 67 76 77 68 61 59 55 54 53 50 52 58 61 63 63 62 62 61 59 62 64 64 67 69 69 67 63 62 65 67 69 70 72 77 75 67 62 58 53 48 47 50 50 44 40 38 33 31 31 33 33 37 41 40 38 37 38 41 42 43 45 44 44 46 45 43 42 42